Regional Weather Roundup
Issued by NWS

Home | Current Version | Previous Version | Graphics & Text | Print | Product List | Glossary On
Versions: 1 2 3 4 5 6 7 8 9 10 11 12 13 14 15 16 17 18 19 20 21 22 23 24 25 26 27 28 29 30 31 32 33 34 35 36 37 38 39 40 41 42 43 44 45 46 47 48 49 50
000
ASUS43 KMKX 302111
RWRWI

WISCONSIN REGIONAL WEATHER ROUNDUP
NATIONAL WEATHER SERVICE MILWAUKEE/SULLIVAN WI
400 PM CDT SAT AUG 30 2014

NOTE: "FAIR" INDICATES FEW OR NO CLOUDS BELOW 12,000 FEET WITH NO
SIGNIFICANT WEATHER AND/OR OBSTRUCTIONS TO VISIBILITY.

WIZ001-002-006>008-014>016-023>028-302200-
NORTHWEST WISCONSIN

CITY           SKY/WX    TMP DP  RH WIND       PRES   REMARKS
SUPERIOR ARPT  CLOUDY    67  61  81 NE7       29.87S
ASHLAND        CLOUDY    62  59  90 NE9       29.89S
HAYWARD        CLOUDY    67  59  75 NE8       29.88R
SIREN          CLOUDY    71  60  68 E6        29.88S
RICE LAKE      CLOUDY    65  60  81 N7        29.89R
LADYSMITH      CLOUDY    66  61  84 N7        29.87F
EAU CLAIRE     CLOUDY    68  63  84 N10       29.85R
MENOMONIE      CLOUDY    69  62  80 NW7       29.86F
NEW RICHMOND   CLOUDY    70  60  71 N6        29.87F
OSCEOLA        PTSUNNY   70  64  80 N5        29.89F
$$

WIZ003>005-009-010-017-018-302200-
NORTH CENTRAL WISCONSIN

CITY           SKY/WX    TMP DP  RH WIND       PRES   REMARKS
WOODRUFF       CLOUDY    62  59  91 N8        29.85R
RHINELANDER    CLOUDY    62  59  90 VRB5      29.84S
EAGLE RIVER    CLOUDY    61  61 100 N7        29.83F
LAND O LAKES   CLOUDY    59  59  97 N9        29.86R FOG
PHILLIPS       CLOUDY    62  59  89 N7        29.86S
TOMAHAWK       CLOUDY    62  59  89 NW6       29.85R
MEDFORD        CLOUDY    64  61  90 NW8       29.85R
MERRILL        CLOUDY    67  63  87 N8        29.83R
$$

WIZ029-030-035-036-043>047-302200-
CENTRAL WISCONSIN

CITY           SKY/WX    TMP DP  RH WIND       PRES   REMARKS
WAUSAU         CLOUDY    71  63  75 NW14G20   29.80R
MOSINEE        CLOUDY    72  66  83 NW10      29.82R
MARSHFIELD     MOSUNNY   75  65  70 NW13G22   29.82R
STEVENS POINT  CLOUDY    72  65  78 W5        29.81S
WAUPACA        CLOUDY    71  69  92 CALM      29.79S
WAUTOMA        LGT RAIN  77  67  71 W7        29.80R
WISC RAPIDS    RAIN      73  67  81 W8        29.81S
CAMP DOUGLAS   MOSUNNY   78  70  75 W12       29.81S HX  81
$$

WIZ011>013-019>022-031-037>040-048>050-302200-
NORTHEAST WISCONSIN

CITY           SKY/WX    TMP DP  RH WIND       PRES   REMARKS
ANTIGO         CLOUDY    67  64  88 NW10      29.81R
STURGEON BAY   PTSUNNY   72  64  78 NW8       29.75S
GREEN BAY      PTSUNNY   77  68  73 NW9       29.76R
MANITOWOC      PTSUNNY   77  69  76 W8        29.76R
APPLETON       PTSUNNY   73  64  73 W12       29.78R
CLINTONVILLE   RAIN      70  66  88 W7        29.78R
OSHKOSH        LGT RAIN  72  67  84 NW5       29.77S
$$

WIZ032>034-041-042-053>061-302200-
SOUTHWEST WISCONSIN

CITY           SKY/WX    TMP DP  RH WIND       PRES   REMARKS
LA CROSSE      CLOUDY    77  66  68 NW10      29.83S
SPARTA         PTSUNNY   76  64  67 W12G17    29.83S
VIROQUA        FAIR      76  67  74 NW10      29.85S
BOSCOBEL       MOSUNNY   80  65  59 W7        29.82F HX  82
PRAIRIE DU CHI PTSUNNY   79  63  57 W10       29.82F HX  80
PLATTEVILLE    PTSUNNY   79  68  69 SW13      29.86S HX  82
$$

WIZ056-057-062-063-064-067-068-302200-
SOUTH CENTRAL WISCONSIN

CITY           SKY/WX    TMP DP  RH WIND       PRES   REMARKS
BARABOO/DELLS  SUNNY     79  65  62 W9G16     29.81S HX  81
LONE ROCK      SUNNY     82  67  60 W8        29.82S HX  84
WATERTOWN      CLOUDY    74  68  82 W9        29.81R
MADISON        MOSUNNY   79  67  66 W9        29.81S HX  81
MIDDLETON      MOCLDY    80  67  63 W10       29.83S HX  82
MONROE         PTSUNNY   79  64  61 W14       29.84F HX  81
JANESVILLE     PTSUNNY   81  64  57 W16G23    29.82S HX  82
$$

WIZ051-052-058>065-066-070>072-302200-
SOUTHEAST WISCONSIN

CITY           SKY/WX    TMP DP  RH WIND       PRES   REMARKS
MILWAUKEE      PTSUNNY   78  66  66 W15       29.80S HX  80
WAUKESHA       PTSUNNY   72  66  83 SW15      29.82R
MILWAUKEE/TIMM PTSUNNY   77  64  65 SW12G21   29.80S
RACINE         CLOUDY    78  66  66 SW9G20    29.82F HX  80
BURLINGTON     MOSUNNY   74  69  84 SW14      29.82S
KENOSHA        PTSUNNY   78  67  68 SW17G23   29.82F HX  80
FOND DU LAC    MOSUNNY   74  67  78 MISG      29.78S
SHEBOYGAN      CLOUDY    74  66  76 W13       29.77R
WEST BEND      PTSUNNY   73  64  73 W9        29.80S
JUNEAU         CLOUDY    73  68  85 SW9       29.82R
$$

LSZ147-162-302200-
LAKE SUPERIOR

STATION/POSITION TIME  TEMP    WIND        PRES    WAVE
                       AIR SEA DIR/SP/G            HT/PER
                 (UTC) (F)     (DEG/KT/KT) (MB)    (FT/S)
W MID LAKE BUOY  2050   59 58   50/  4/  6 1011.5R   1/ 3
DEVILS ISLAND    2100   61      60/  6/  7 1012.0S
PORT WING        2040   66      40/ 10/ 11 1011.9S
SAXON HARBOR     2000   62      50/  9/ 12 1011.9
$$

LMZ867-665-643>646-302200-
LAKE MICHIGAN

STATION/POSITION TIME  TEMP    WIND        PRES    WAVE
                       AIR SEA DIR/SP/G            HT/PER
                 (UTC) (F)     (DEG/KT/KT) (MB)    (FT/S)
N MID LAKE BUOY  2050   67 65  210/ 16/ 19 1005.7F   4/ 6
NORTHPORT PIER   2000   70      CALM  /  5 1006.4F
SISTER BAY       1841   74     180/  7/  8   N/A
KEWAUNEE LAKESHO 2000          300/  9/ 13 1006.4S
SHEBOYGAN LAKESH 2100   75 55  270/  9/ 11 1007.9R
ATWATER BUOY     2100   75     220/ 17/ 23 1010.0R
MILWAUKEE LAKESH 2000   77     240/ 16/ 21   N/A
S MID LAKE BUOY  2050   74 69  230/ 14/ 16 1009.3    2/ 5
KENOSHA   LAKESH 2100   80     240/ 14/ 21 1009.1F
$$

TC  - TEMPERATURE IN CELSIUS
VSB - VISIBILITY IN STATUTE MILES
WCI - WIND CHILL INDEX
HX  - HEAT INDEX



USA.gov is the U.S. government's official web portal to all federal, state and local government web resources and services.